Histats.com © 2005-2018 - GDPR: tracker policy -Integrate your policy - this website policy - Check/do opt-out

Jackpot

Texas Poker Multi Jackpot System

Kini Telah hadir Jackpot SUPER ROYAL FLUSH

Kini Telah hadir Jackpot 2000 (khusus table VIP keatas).

Ikutilah global jackpot yang tersedia di system kami, dengan system jackpot terbaru dan pertama di indonesia, anda dapat membeli jackpot dengan harga 100 rupiah saja dan menangkan hadiahnya hingga puluhan juta rupiah.

Jackpot bukanlah suatu keharusan untuk dibeli, namun kami memberikan suatu fitur tambahan untuk member tercinta dari www.wingspoker.net.

Terdapat tiga pilihan harga jackpot yang bisa anda beli yaitu :100,500,1000 dan 2000(khusus table VIP Keatas) rupiah.

Hadiah dari Multi jackpot system www.wingspoker.net

  1. full house x 10 harga jackpot yang anda beli.
      (contoh:anda membeli 1000 maka:1000 X10 = 10.000)
  2. four of kind x 250 harga jackpot yang anda beli
      (contoh:anda membeli 1000 maka:1000 X250 = 250.000)
  3. Straight flush x 1200
      (contoh:anda membeli 1000 maka:1000 X1200 = 1.200.000)
  4. Royal flush x 10000 harga jackpot yang anda beli
      (contoh:anda membeli 1000 maka:1000 X10000 = 10.000.000)
  5. SUPER ROYAL FLUSH x 30000 harga jackpot yang anda beli
      (contoh:anda membeli 1000 maka:1000 X30000 = 30.000.000)

Kondisi kartu

  1. full house adalah kondisi kartu dimana kartu anda dan kartu tengah dengan total 7 kartu bisa mendapatkan nilai 5 kartu dengan kombinasi 1 tris(three of kind) dan 1 pair, contoh 3 kartu 10 dan 2 kartu 5
  2. Four of kind adalah kondisi kartu dimana kartu anda dan kartu tengah dengan total 7 kartu bisa mendapatkan nilai 5 kartu dengan kombinasi 4 kartu yang sama jumlah dan 1 kartu apapun juga contoh anda mendapatkan 4 buah kartu angka 3 dan 1 kartu apapun.
  3. Staright flush adalah kondisi kartu dimana kartu anda dan kartu tengah dengan total 7 kartu bisa mendapatkan nilai 5 kartu dengan kombinasi seri / staright dengan kembang yang sama contoh : urutan kartu dari angka 5, 6, 7, 8 , 9 10 dengan kembang yg sama misalnya as hati
  4. Royal flush adalah kondisi kartu dimana kartu anda dan kartu tengah dengan total 7 kartu bisa mendapatkan nilai 5 kartu dengan kombinasi seri / staright dengan kembang yang sama tetapi kartu tersebut haruslah dimulai dari 10. contoh 10, Queen, Jack, King dan aces dengan kembang yang sama
  5. Super Royal flush adalah kondisi kartu dimana Kedua kartu anda digabung dengan 3 kartu pertama meja haruslah royal flush. contoh kartu anda 10,Queen kembang sama dan 3 kartu pertama meja adalah Jack, King dan aces dengan kembang yang sama

Demikian adalah penjelasan dari Multi Jackpot www.wingspoker.net terima kasih dan selamat bermain salam hoki dari kami

Texas Poker Jackpot Winner

TOP SUPER ROYAL FLUSH
No.TanggalNamaPriceWin
125/06 18:00G6X8G2BEI8Super Royal flush6,000,000
225/06 16:52AKEP13Super Royal flush3,000,000
325/06 16:40SEKANDAU96Super Royal flush15,000,000
424/06 22:49KEBOK66Super Royal flush6,000,000
524/06 17:20FAI50N9Super Royal flush6,000,000
TOP ROYAL FLUSH
No.TanggalNamaPriceWin
125/06 18:58BUZZKIIRoyal flush2,000,000
225/06 18:48EB4CAAFDRoyal flush2,000,000
325/06 18:44LOUEIS88Royal flush2,000,000
425/06 18:44AMRY_AZRoyal flush5,000,000
525/06 18:42DW1UT4R1Royal flush2,000,000
TOP STRAIGHT FLUSH
No.TanggalNamaPriceWin
125/06 19:03CALARA77Straight Flush600,000
225/06 19:02OHNO6969Straight Flush120,000
325/06 19:02OURAXStraight Flush600,000
425/06 19:01ENPOM88Straight Flush600,000
525/06 19:01UNDER_SIEGStraight Flush600,000
LATEST JACKPOT
No.TanggalNamaPriceWin
125/06 19:04GLOCKMAN82Full House2,000
225/06 19:04BINGO_0909Full House2,000
325/06 19:04ARWC7O548BFull House2,000
425/06 19:04HAVAL269Full House2,000
525/06 19:04B46106713Full House5,000
625/06 19:04HLPTNKJPF9Full House1,000
725/06 19:04UCOKUYFull House5,000
825/06 19:04ASCE1234Full House5,000
925/06 19:04D43966EAFull House20,000
1025/06 19:04BURHAMXXFull House500
1125/06 19:04IMUT_ANFull House2,000
1225/06 19:04YI1I9FETO6Full House2,000
1325/06 19:04YECFJ7PHPWFull House5,000
1425/06 19:04BUZANA91Full House5,000
1525/06 19:04YANSABGTFull House10,000
1625/06 19:04K8MGAKHEOAFull House5,000
1725/06 19:04WOL35_888Full House1,000
1825/06 19:04Y5RA13RT45Full House5,000
1925/06 19:04JAKES01Full House5,000
2025/06 19:04GANZ15Full House1,000
2125/06 19:04BORTOL0884Full House2,000
2225/06 19:04SANCES8Full House2,000
2325/06 19:04R4_FF1_05Full House1,000
2425/06 19:04ASIA0189Full House5,000
2525/06 19:04AR4CKP088Full House2,000
2625/06 19:04PUREL78Full House2,000
2725/06 19:04CAMLIENFull House2,000
2825/06 19:04PUNKZ1668Full House20,000
2925/06 19:04TILETELUFull House20,000
3025/06 19:04BTTKUYUK88Full House5,000
3125/06 19:04DOKTORQIUFull House5,000
3225/06 19:04WADAI05Full House5,000
3325/06 19:04KAUKAYUUUFull House2,000
3425/06 19:04TARIKAJA12Full House2,000
3525/06 19:04PUKIMAY888Full House5,000
3625/06 19:04DENTOK99Full House10,000
3725/06 19:04P45T1P0RFour Of A Kind125,000
3825/06 19:04AKAK5555Full House500
3925/06 19:04Q1YIRA18Full House10,000
4025/06 19:04KZHOFull House10,000
4125/06 19:04SASUKE778Full House2,000
4225/06 19:04SUEBHOKYFull House2,000
4325/06 19:04FIRSTWAN22Full House20,000
4425/06 19:04GELPOK99Full House2,000
4525/06 19:04VSHLHURV53Four Of A Kind250,000
4625/06 19:04JANAR22Full House2,000
4725/06 19:04MONYBOY90Full House5,000
4825/06 19:04TEMPURJPFull House2,000
4925/06 19:04D8B7ACE7Full House5,000
5025/06 19:04IGOGXVAAEUFull House5,000

Domino Multi Jackpot System

Ikutilah global jackpot yang tersedia di system kami, dengan system jackpot terbaru dan pertama di indonesia, anda dapat membeli jackpot dengan harga 100 rupiah saja dan menangkan hadiahnya hingga puluhan juta rupiah.

Jackpot bukanlah suatu keharusan untuk dibeli, namun kami memberikan suatu fitur tambahan untuk member tercinta dari www.wingspoker.net.

Terdapat tiga pilihan harga jackpot yang bisa anda beli yaitu :100,500 dan 1000 rupiah.

Hadiah dari Multi jackpot system www.wingspoker.net

  1. Murni Kecil x 50 harga jackpot yang anda beli.
      (contoh:anda membeli 1000 maka:1000 X 50 = 50.000)
  2. Murni Besar x 50 harga jackpot yang anda beli
      (contoh:anda membeli 1000 maka:1000 X 50 = 50.000)
  3. BALAK x 100 harga jackpot yang anda beli
      (contoh:anda membeli 1000 maka:1000 X 100 = 100.000)
  4. ENAM DEWA x 6666 harga jackpot yang anda beli
      (contoh:anda membeli 1000 maka:1000 X 6666 = 6.666.000)

Demikian adalah penjelasan dari Multi Jackpot www.wingspoker.net terima kasih dan selamat bermain salam hoki dari kami

Domino Jackpot Winner

TOP ENAM DEWA
No.TanggalNamaPriceWin
125/06 18:59KADUT32murni enam3,333,000
225/06 15:53MANYAL05murni enam3,333,000
325/06 14:41DODY1980murni enam6,666,000
425/06 11:56MASHARJOmurni enam3,333,000
525/06 10:16RAKAB22murni enam6,666,000
TOP BALAK
No.TanggalNamaPriceWin
125/06 19:04VOOOK1balak100,000
225/06 18:59ARDY791balak100,000
325/06 18:58TONDO87balak100,000
425/06 18:58CC8343B0balak100,000
525/06 18:57BXU4HETHYIbalak10,000
LATEST JACKPOT
No.TanggalNamaPriceWin
125/06 19:04VOOOK1balak100,000
225/06 19:04IONCAHXUA6murni kecil25,000
325/06 19:04VAKUM6354murni kecil50,000
425/06 19:04J4Y4K4Y4murni kecil50,000
525/06 19:04HIUWHITEmurni besar5,000
625/06 19:03GASAXBOOSmurni kecil5,000
725/06 19:02ZETANAmurni besar50,000
825/06 19:01RIZKYP90murni kecil5,000
925/06 19:01APING_JRmurni kecil5,000
1025/06 19:01FETZUmurni besar50,000
1125/06 19:01CUTZZZmurni besar5,000
1225/06 19:01TONDO87murni besar50,000
1325/06 19:00ADI8900murni kecil5,000
1425/06 19:00GOODPAPAmurni kecil50,000
1525/06 19:00TUEKKOYAmurni besar50,000
1625/06 19:00DIMAS2102murni kecil25,000
1725/06 18:59DWBTUSEI45murni kecil50,000
1825/06 18:59ARDY791balak100,000
1925/06 18:59MUSLIMIN13murni besar25,000
2025/06 18:59KADUT32murni enam3,333,000
2125/06 18:58TONDO87balak100,000
2225/06 18:58YUNUS248murni kecil25,000
2325/06 18:58CC8343B0balak100,000
2425/06 18:57BXU4HETHYIbalak10,000
2525/06 18:57JANJI303murni besar50,000
2625/06 18:57SABO321murni besar25,000
2725/06 18:57GY1R43DGF7murni besar5,000
2825/06 18:57MANOHARAAAlucky9925,000
2925/06 18:56DENADA12murni kecil25,000
3025/06 18:56ARDIAN112murni kecil25,000
3125/06 18:56RIS744lucky99200,000
3225/06 18:56BABONOKmurni kecil25,000
3325/06 18:55DWBTUSEI45balak100,000
3425/06 18:55SIRILIUSmurni kecil50,000
3525/06 18:55K1N9Q9murni kecil25,000
3625/06 18:53VHY86murni besar50,000
3725/06 18:52ALANG13balak10,000
3825/06 18:52OIM6666lucky9910,000
3925/06 18:51SE7ENSKYbalak100,000
4025/06 18:51DJAHEDOmurni besar50,000
4125/06 18:50ZEERROOOmurni besar50,000
4225/06 18:50ARIES569murni kecil25,000
4325/06 18:49DEWACULESmurni kecil50,000
4425/06 18:49UNDUYLUN99murni besar25,000
4525/06 18:49PONGKROKmurni besar25,000
4625/06 18:49DS6V8PZGW1murni besar50,000
4725/06 18:48BIEBIE13murni kecil50,000
4825/06 18:48DDMIT999murni besar50,000
4925/06 18:47TRONO11murni kecil25,000
5025/06 18:46SANGAK999murni kecil5,000

Ceme Multi Jackpot System

Jackpot dilihat dari gabungan kartu pemain dengan kartu bandar. Bandar harus membeli jackpot sebanyak jumlah player yang sedang duduk. Sebagai contoh bila terdapat 3 pemain duduk bermain, dan bandar memutuskan untuk membeli jackpot Rp 1.000, maka pada periode tersebut bandar akan membeli jackpot sebanyak 3xRp1.000 = Rp3.000.

Jackpot bukanlah suatu keharusan untuk dibeli, namun kami memberikan suatu fitur tambahan untuk member tercinta dari www.wingspoker.net.

Terdapat tiga pilihan harga jackpot yang bisa anda beli yaitu :100,500 dan 1000 rupiah.

Hadiah dari Multi jackpot system www.wingspoker.net

  1. Murni Kecil x 50 harga jackpot yang anda beli.
      (contoh:anda membeli 1000 maka:1000 X 50 = 50.000)
  2. Murni Besar x 50 harga jackpot yang anda beli
      (contoh:anda membeli 1000 maka:1000 X 50 = 50.000)
  3. BALAK x 200 harga jackpot yang anda beli
      (contoh:anda membeli 1000 maka:1000 X 200 = 200.000)
  4. ENAM DEWA x 6666 harga jackpot yang anda beli
      (contoh:anda membeli 1000 maka:1000 X 6666 = 6.666.000)

Demikian adalah penjelasan dari Multi Jackpot www.wingspoker.net terima kasih dan selamat bermain salam hoki dari kami

Ceme Jackpot Winner

TOP ENAM DEWA
No.TanggalNamaPriceWin
125/06 18:51VGOBOYXZ77murni enam3,333,000
225/06 18:42L1L0122murni enam3,333,000
325/06 18:42DWBTIVER96murni enam666,600
425/06 18:34ZHIKOPUTRAmurni enam6,666,000
525/06 18:34G0KU87murni enam6,666,000
TOP BALAK
No.TanggalNamaPriceWin
125/06 19:04DWBTIKE53balak100,000
225/06 19:04BHAGHOL7balak20,000
325/06 19:03QILUT78balak20,000
425/06 19:03POEL9900balak200,000
525/06 19:03K2129TLbalak200,000
LATEST JACKPOT
No.TanggalNamaPriceWin
125/06 19:04A98UKROMIN558murni besar25,000
225/06 19:04EGAKENDOmurni kecil50,000
325/06 19:04KANCIL102murni kecil25,000
425/06 19:04TRM5BLJBMXmurni kecil50,000
525/06 19:04DEDYPLN34murni kecil50,000
625/06 19:04AAGBAEL77murni besar50,000
725/06 19:04TIA1991murni kecil50,000
825/06 19:04DJONGmurni kecil25,000
925/06 19:04KUDUH99murni kecil50,000
1025/06 19:04Z4835FPmurni kecil50,000
1125/06 19:04MANPARE7murni kecil50,000
1225/06 19:04DWBTIKE53balak100,000
1325/06 19:04BHAGHOL7balak20,000
1425/06 19:04BOGEL691murni kecil5,000
1525/06 19:04AER0X2828murni besar50,000
1625/06 19:04VALOOSmurni kecil50,000
1725/06 19:03QILUT78balak20,000
1825/06 19:03KUNCORO288murni kecil50,000
1925/06 19:03PUO999murni kecil50,000
2025/06 19:03KOMPOR17murni kecil25,000
2125/06 19:03KOMPOR17murni kecil25,000
2225/06 19:03POEL9900balak200,000
2325/06 19:03K2129TLbalak200,000
2425/06 19:03YOKOKLENmurni besar25,000
2525/06 19:03PRAASGENSmurni kecil25,000
2625/06 19:03QILUT78murni kecil25,000
2725/06 19:03QQSRI58murni kecil5,000
2825/06 19:03CHOKYCOKERmurni besar50,000
2925/06 19:03PENOOZAmurni besar50,000
3025/06 19:03AB290316ELmurni besar25,000
3125/06 19:03FLASH365murni besar5,000
3225/06 19:02IISKAN2506balak200,000
3325/06 19:02PRYTA_LAUmurni kecil50,000
3425/06 19:02UW41Smurni kecil50,000
3525/06 19:02B18ANYANK383murni kecil25,000
3625/06 19:02DARSON012murni kecil50,000
3725/06 19:02GHAVERmurni kecil50,000
3825/06 19:02WD18U41GIKmurni kecil25,000
3925/06 19:02JASYARAmurni kecil25,000
4025/06 19:02T60R7SI0RZmurni kecil25,000
4125/06 19:02IPAYY79murni besar50,000
4225/06 19:02TGAL101balak200,000
4325/06 19:02IDNGAHER89balak20,000
4425/06 19:02HUZNI99murni besar50,000
4525/06 19:02IDK887169murni besar5,000
4625/06 19:02HUZNI99murni besar50,000
4725/06 19:02DIANA6666murni besar5,000
4825/06 19:02MATOEZmurni besar50,000
4925/06 19:02PAOIB85PY3murni besar50,000
5025/06 19:02TOXIC114balak200,000